Location: Juzet
(42.9779°N, 0.7597°E)
Time: 02:56:51
(UTC+00:00)

Cosmos 1992 Rocket - Pass Details

Date: 14 July 2020
Orbit: 758 x 766 km, 74.0° (Epoch: 04 August)

Event Time Altitude Azimuth Distance (km) Brightness Sun altitude
Rises 01:09:00 0° 334° (NNW) 3,243 7.9 -23.6°
Reaches altitude 10° 01:11:27 10° 329° (NNW) 2,313 7.0 -23.5°
Maximum altitude 01:16:28 47° 256° (WSW) 1,010 4.3 -23.2°
Enters shadow 01:16:37 47° 250° (WSW) 1,012 4.3 -23.2°
